When you browse on this site, cookies collect data to enhance your experience and personalize the content and advertising you see.
Visit our Privacy Policy to learn more. By continuing to use the site, you agree to this use of cookies and data.
  • In Sweden
  • List of Countries
  • For 7 days
  • Water Temperature
  • Satellite Maps
  • Weather Map
  • Weather Widgets
  • user-avatar
    Login

    Hourly Weather Coeur d'Alene

    Today, 18 July, Thursday

    Time Temperature Precipitation Wind Pressure Humidity
    00:00 +16°C° 0 mm 2 mps 699 mmHg 71%
    01:00 +16°C° 0 mm 2 mps 699 mmHg 72%
    02:00 +15°C° 0 mm 2 mps 699 mmHg 78%
    03:00 +14°C° 0 mm 2 mps 699 mmHg 84%
    04:00 +13°C° 0 mm 2 mps 699 mmHg 90%
    05:00 +14°C° 0 mm 3 mps 699 mmHg 81%
    06:00 +15°C° 0 mm 4 mps 699 mmHg 72%
    07:00 +18°C° 0 mm 4 mps 699 mmHg 63%
    08:00 +19°C° 0.1 mm 5 mps 700 mmHg 55%
    09:00 +21°C° 0.1 mm 6 mps 700 mmHg 47%
    10:00 +22°C° 0.1 mm 7 mps 700 mmHg 39%
    11:00 +23°C° 0 mm 7 mps 700 mmHg 34%
    12:00 +23°C° 0 mm 7 mps 699 mmHg 29%
    13:00 +24°C° 0 mm 7 mps 699 mmHg 24%
    14:00 +24°C° 0 mm 6 mps 699 mmHg 23%
    15:00 +24°C° 0 mm 6 mps 699 mmHg 23%
    16:00 +24°C° 0 mm 6 mps 699 mmHg 22%
    17:00 +22°C° 0 mm 4 mps 699 mmHg 28%
    18:00 +20°C° 0 mm 3 mps 699 mmHg 34%
    19:00 +19°C° 0 mm 1 mps 699 mmHg 40%
    20:00 +16°C° 0 mm 1 mps 699 mmHg 43%
    21:00 +14°C° 0 mm 1 mps 699 mmHg 46%
    22:00 +13°C° 0 mm 1 mps 699 mmHg 49%
    23:00 +12°C° 0 mm 1 mps 699 mmHg 52%

    Tomorrow, 19 July, Friday

    Time Temperature Precipitation Wind Pressure Humidity
    00:00 +11°C° 0 mm 1 mps 699 mmHg 55%
    01:00 +10°C° 0 mm 1 mps 699 mmHg 58%
    02:00 +10°C° 0 mm 1 mps 700 mmHg 63%
    03:00 +9°C° 0 mm 1 mps 700 mmHg 69%
    04:00 +8°C° 0 mm 1 mps 700 mmHg 74%
    05:00 +9°C° 0 mm 2 mps 701 mmHg 69%
    06:00 +12°C° 0 mm 2 mps 701 mmHg 65%
    07:00 +13°C° 0 mm 3 mps 701 mmHg 61%
    08:00 +16°C° 0 mm 3 mps 702 mmHg 54%
    09:00 +18°C° 0 mm 4 mps 702 mmHg 48%
    10:00 +19°C° 0 mm 4 mps 703 mmHg 42%
    11:00 +20°C° 0 mm 4 mps 703 mmHg 38%
    12:00 +22°C° 0 mm 4 mps 703 mmHg 34%
    13:00 +23°C° 0 mm 4 mps 703 mmHg 30%
    14:00 +23°C° 0 mm 4 mps 703 mmHg 29%
    15:00 +23°C° 0 mm 4 mps 703 mmHg 29%
    16:00 +23°C° 0 mm 4 mps 703 mmHg 28%
    17:00 +22°C° 0 mm 3 mps 703 mmHg 35%
    18:00 +20°C° 0 mm 2 mps 703 mmHg 41%
    19:00 +19°C° 0 mm 1 mps 703 mmHg 48%
    20:00 +16°C° 0 mm 1 mps 703 mmHg 52%
    21:00 +14°C° 0 mm 1 mps 703 mmHg 57%
    22:00 +11°C° 0 mm 0 mps 704 mmHg 61%
    23:00 +11°C° 0 mm 0 mps 704 mmHg 63%

    Day after tomorrow, 20 July, Saturday

    Time Temperature Precipitation Wind Pressure Humidity
    00:00 +11°C° 0 mm 1 mps 704 mmHg 65%
    01:00 +11°C° 0 mm 1 mps 704 mmHg 67%
    02:00 +10°C° 0 mm 1 mps 704 mmHg 68%
    03:00 +10°C° 0 mm 1 mps 705 mmHg 70%
    04:00 +9°C° 0 mm 1 mps 705 mmHg 71%
    05:00 +12°C° 0 mm 1 mps 705 mmHg 64%
    06:00 +15°C° 0 mm 1 mps 706 mmHg 56%
    07:00 +18°C° 0 mm 1 mps 706 mmHg 48%
    08:00 +21°C° 0 mm 1 mps 706 mmHg 42%
    09:00 +23°C° 0 mm 1 mps 707 mmHg 37%
    10:00 +26°C° 0 mm 1 mps 707 mmHg 31%
    11:00 +27°C° 0 mm 1 mps 706 mmHg 28%
    12:00 +28°C° 0 mm 1 mps 706 mmHg 26%
    13:00 +29°C° 0 mm 1 mps 706 mmHg 24%
    14:00 +29°C° 0 mm 1 mps 706 mmHg 23%
    15:00 +29°C° 0 mm 1 mps 705 mmHg 23%
    16:00 +29°C° 0 mm 1 mps 705 mmHg 22%
    17:00 +27°C° 0 mm 1 mps 705 mmHg 29%
    18:00 +24°C° 0 mm 1 mps 704 mmHg 37%
    19:00 +22°C° 0 mm 1 mps 704 mmHg 44%
    20:00 +20°C° 0 mm 1 mps 704 mmHg 46%
    21:00 +18°C° 0 mm 1 mps 704 mmHg 48%
    22:00 +16°C° 0 mm 1 mps 704 mmHg 50%
    23:00 +15°C° 0 mm 1 mps 704 mmHg 53%

    21 July, Sunday

    Time Temperature Precipitation Wind Pressure Humidity
    00:00 +14°C° 0 mm 1 mps 703 mmHg 56%
    01:00 +14°C° 0 mm 1 mps 703 mmHg 59%
    02:00 +13°C° 0 mm 1 mps 703 mmHg 61%
    03:00 +13°C° 0 mm 1 mps 703 mmHg 63%
    04:00 +12°C° 0 mm 1 mps 704 mmHg 65%
    05:00 +14°C° 0 mm 1 mps 704 mmHg 59%
    06:00 +18°C° 0 mm 1 mps 704 mmHg 53%
    07:00 +20°C° 0 mm 1 mps 705 mmHg 47%
    08:00 +24°C° 0 mm 1 mps 705 mmHg 40%
    09:00 +27°C° 0 mm 1 mps 705 mmHg 33%
    10:00 +30°C° 0 mm 1 mps 706 mmHg 26%
    11:00 +30°C° 0 mm 0 mps 705 mmHg 23%
    12:00 +32°C° 0 mm 0 mps 705 mmHg 21%
    13:00 +33°C° 0 mm 0 mps 705 mmHg 18%
    14:00 +33°C° 0 mm 0 mps 705 mmHg 18%
    15:00 +33°C° 0 mm 0 mps 704 mmHg 18%
    16:00 +33°C° 0 mm 0 mps 704 mmHg 19%
    17:00 +32°C° 0 mm 1 mps 704 mmHg 25%
    18:00 +29°C° 0 mm 1 mps 703 mmHg 32%
    19:00 +27°C° 0 mm 1 mps 703 mmHg 38%
    20:00 +25°C° 0 mm 1 mps 703 mmHg 40%
    21:00 +24°C° 0 mm 1 mps 702 mmHg 42%
    22:00 +22°C° 0 mm 1 mps 702 mmHg 43%
    23:00 +21°C° 0 mm 1 mps 702 mmHg 46%

    22 July, Monday

    Time Temperature Precipitation Wind Pressure Humidity
    00:00 +21°C° 0 mm 1 mps 702 mmHg 48%
    01:00 +20°C° 0 mm 1 mps 702 mmHg 50%
    02:00 +19°C° 0 mm 1 mps 702 mmHg 53%
    03:00 +19°C° 0 mm 1 mps 702 mmHg 56%
    04:00 +18°C° 0 mm 1 mps 702 mmHg 58%
    05:00 +19°C° 0.1 mm 1 mps 702 mmHg 60%
    06:00 +21°C° 0.1 mm 1 mps 702 mmHg 61%
    07:00 +22°C° 0.1 mm 1 mps 703 mmHg 62%
    08:00 +26°C° 0 mm 1 mps 703 mmHg 52%
    09:00 +29°C° 0 mm 1 mps 703 mmHg 42%
    10:00 +32°C° 0 mm 1 mps 703 mmHg 32%
    11:00 +34°C° 0 mm 1 mps 703 mmHg 29%
    12:00 +36°C° 0 mm 1 mps 703 mmHg 26%
    13:00 +39°C° 0 mm 1 mps 703 mmHg 23%
    14:00 +37°C° 0 mm 1 mps 703 mmHg 25%
    15:00 +37°C° 0 mm 1 mps 702 mmHg 26%
    16:00 +36°C° 0 mm 1 mps 702 mmHg 27%
    17:00 +34°C° 0 mm 1 mps 702 mmHg 35%
    18:00 +31°C° 0 mm 1 mps 702 mmHg 42%
    19:00 +28°C° 0 mm 1 mps 701 mmHg 49%
    20:00 +27°C° 0.2 mm 1 mps 702 mmHg 54%
    21:00 +25°C° 0.2 mm 1 mps 702 mmHg 59%
    22:00 +24°C° 0.2 mm 1 mps 702 mmHg 64%
    23:00 +23°C° 0.1 mm 1 mps 702 mmHg 68%

    23 July, Tuesday

    Time Temperature Precipitation Wind Pressure Humidity
    00:00 +22°C° 0.1 mm 1 mps 702 mmHg 72%
    01:00 +21°C° 0.1 mm 1 mps 702 mmHg 76%
    02:00 +21°C° 0 mm 1 mps 702 mmHg 78%
    03:00 +18°C° 0 mm 0 mps 702 mmHg 81%
    04:00 +18°C° 0 mm 0 mps 702 mmHg 83%
    05:00 +19°C° 0 mm 0 mps 702 mmHg 76%
    06:00 +23°C° 0 mm 1 mps 702 mmHg 70%
    07:00 +25°C° 0 mm 1 mps 703 mmHg 64%
    08:00 +27°C° 0 mm 1 mps 703 mmHg 57%
    09:00 +28°C° 0 mm 1 mps 703 mmHg 50%
    10:00 +29°C° 0 mm 2 mps 703 mmHg 43%
    11:00 +31°C° 0 mm 2 mps 703 mmHg 39%
    12:00 +32°C° 0 mm 2 mps 703 mmHg 36%
    13:00 +35°C° 0 mm 2 mps 703 mmHg 32%
    14:00 +35°C° 0 mm 2 mps 703 mmHg 31%
    15:00 +36°C° 0 mm 2 mps 702 mmHg 30%
    16:00 +36°C° 0 mm 2 mps 702 mmHg 28%
    17:00 +33°C° 0 mm 1 mps 701 mmHg 36%
    18:00 +30°C° 0 mm 1 mps 701 mmHg 43%
    19:00 +28°C° 0 mm 1 mps 700 mmHg 50%
    20:00 +26°C° 0.2 mm 1 mps 700 mmHg 58%
    21:00 +24°C° 0.2 mm 1 mps 700 mmHg 65%
    22:00 +20°C° 0.2 mm 0 mps 700 mmHg 72%
    23:00 +21°C° 0.3 mm 1 mps 700 mmHg 75%
    Show more